[[{"header":{"parameterUnit":"m.s-1","parameterCategory":1,"la1":30.2991,"la2":30.254,"lo1":-89.0895,"lo2":-89.0444,"dy":0.0017,"dx":0.0017,"nx":28,"ny":28,"refTime":"2025-09-12T21:00:00:Z","depth":0,"parameterNumber":2,"parameterNumberName":"U-component_of_WINDS"},"data":[0,0,0,0,0,0,0,0,0,0,0,0,0,0,0,0,0,0,0,0,0,0,0,0,0,0,0,0,0,0,0,0,0,0,0,0,0,0,0,0,0,0,0,0,0,0,0,0,0,0,0,0,0,0,0,0,0,0,1.5879,1.5882,0,1.617,1.6173,1.6176,1.6275,1.6274,1.6272,1.6271,1.657,1.6578,1.6587,0,0,0,0,0,0,0,0,0,0,0,0,0,1.5408,1.5416,1.5878,1.5882,1.5886,1.6169,1.6173,1.6177,1.6275,1.6273,1.6272,1.6271,1.6567,1.6577,1.6588,0,0,0,0,0,0,0,0,0,0,0,0,0,1.5647,1.5419,1.5878,1.5968,1.5979,1.6169,1.6173,1.6178,1.6275,1.6273,1.6272,1.627,1.6563,1.6576,1.659,1.6709,0,0,1.6631,1.6637,0,0,0,0,0,0,0,0,1.5633,1.5664,1.5951,1.5963,1.5975,1.6184,1.6117,1.6356,1.6276,1.6163,1.6271,1.6269,1.6443,1.6466,1.6525,1.6723,1.6736,1.6632,1.6641,1.6646,1.665,0,0,0,0,0,0,0,1.5616,1.5652,1.5994,1.5955,1.597,1.5995,1.6027,1.6163,1.6309,1.6173,1.618,1.6214,1.6449,1.6511,1.6532,1.6741,1.6632,1.6644,1.6652,1.6658,1.7054,1.7056,0,0,0,0,0,0,1.5584,1.5638,1.5984,1.6002,1.5796,1.6005,1.6041,1.6119,1.6308,1.6335,1.6215,1.6217,1.6489,1.6516,1.6543,1.6697,1.6646,1.6659,1.6667,1.7052,1.7055,1.7057,0,0,0,0,0,0,1.5574,1.5614,1.5973,1.5822,1.587,1.6015,1.6102,1.6126,1.6188,1.634,1.6367,1.6252,1.6489,1.6524,1.6668,1.6709,1.6665,1.6678,1.7049,1.7053,1.7056,1.7004,0,0,0,0,0,0,1.556,1.561,1.5657,1.5823,1.5877,1.6092,1.6104,1.6133,1.6211,1.6217,1.6382,1.6407,1.649,1.6647,1.6681,1.6727,1.6688,1.7046,1.7051,1.7055,1.7003,1.7006,1.7008,0,0,0,0,0,1.5543,1.563,1.5658,1.57,1.5939,1.6094,1.6125,1.6219,1.6214,1.6263,1.6361,1.6402,1.6699,1.6661,1.67,1.675,1.7044,1.7049,1.7054,1.7002,1.7005,1.7008,0,0,0,0,0,0,1.5465,1.5653,1.5687,1.583,1.5945,1.611,1.6174,1.6219,1.6337,1.6338,1.6449,1.6485,1.6621,1.67,1.6655,1.6877,1.6874,1.6887,1.682,1.6824,1.6827,1.6805,1.6699,0,0,0,0,0,1.5464,1.5574,1.5733,1.5845,1.5901,1.6027,1.6098,1.616,1.6284,1.6333,1.6441,1.656,1.668,1.6757,1.6876,1.7015,1.7053,1.7069,1.7072,1.7073,1.7083,1.7164,1.7173,1.7075,1.7075,1.7075,0,0,1.5464,1.5581,1.5643,1.5832,1.5928,1.604,1.6067,1.6184,1.6269,1.6351,1.6493,1.6577,1.6717,1.6859,1.6927,1.6929,1.7119,1.708,1.708,1.709,1.717,1.718,1.7188,1.7078,1.7078,1.7077,0,0,1.5521,1.562,1.5724,1.5821,1.5967,1.6051,1.6075,1.6234,1.6293,1.6438,1.6502,1.6605,1.6809,1.6906,1.6982,1.7078,1.7121,1.7114,1.7126,1.7204,1.7212,1.7219,1.7254,1.7265,1.7123,1.7123,1.7123,0,1.5502,1.5673,1.5772,1.5886,1.5968,1.6048,1.6155,1.6244,1.6421,1.6475,1.6475,1.6735,1.6834,1.7001,1.7024,1.7083,1.7116,1.7095,1.7202,1.7211,1.7219,1.7254,1.7266,1.7122,1.7122,1.7122,1.7122,0,1.5644,1.5761,1.5828,1.5997,1.6087,1.6196,1.6312,1.6391,1.6446,1.653,1.6677,1.6799,1.6945,1.6989,1.7044,1.7165,1.7162,1.7181,1.7179,1.7225,1.7259,1.7273,1.7119,1.712,1.712,1.7121,0,0,1.5658,1.5882,1.5905,1.5983,1.6151,1.6244,1.6358,1.6501,1.6566,1.6686,1.6785,1.6957,1.6976,1.7063,1.7129,1.7197,1.7266,1.7209,1.7214,1.7215,1.7408,1.7392,1.7405,1.7296,1.7299,1.7301,1.7396,0,1.5736,1.5943,1.6036,1.6202,1.6312,1.6391,1.6491,1.6605,1.6687,1.6793,1.6884,1.7004,1.702,1.7073,1.7144,1.7242,1.7306,1.7237,1.7389,1.7393,1.7351,1.7423,1.7407,1.749,1.741,1.7412,1.7414,0,1.5855,1.5976,1.6152,1.6309,1.6358,1.6446,1.6585,1.6686,1.6817,1.6872,1.6969,1.7034,1.7157,1.7148,1.732,1.7271,1.7339,1.7397,1.7402,1.742,1.7406,1.7443,1.7519,1.7531,1.7436,1.7434,1.7433,0,1.5848,1.6055,1.6188,1.6252,1.6438,1.6498,1.6578,1.6708,1.6788,1.691,1.6964,1.7098,1.7171,1.7274,1.7373,1.7357,1.7536,1.7535,1.7586,1.7583,1.7619,1.7616,1.7707,1.7663,1.7663,1.7663,1.7662,0,1.5926,1.6031,1.6187,1.6268,1.6389,1.6495,1.6612,1.6698,1.6813,1.6913,1.699,1.7082,1.7207,1.7315,1.7394,1.7525,1.7557,1.7606,1.7625,1.7599,1.7593,1.7644,1.7641,1.7666,1.7665,1.7665,1.7664,0,1.5938,1.6047,1.6196,1.636,1.6404,1.6485,1.6626,1.6708,1.6795,1.6921,1.6956,1.7092,1.7224,1.7333,1.7505,1.7558,1.7695,1.7718,1.765,1.7661,1.7705,1.77,1.7834,1.7857,1.7796,1.7796,1.7797,0,1.598,1.6062,1.6236,1.6308,1.6387,1.6503,1.6586,1.6695,1.6779,1.6936,1.6999,1.7137,1.7252,1.7459,1.7573,1.7706,1.7733,1.7771,1.7753,1.7724,1.7734,1.7728,1.7737,1.7772,1.7772,1.7772,1.7772,0,1.6043,1.6093,1.621,1.6346,1.6443,1.6555,1.667,1.6725,1.6855,1.6945,1.7081,1.717,1.7348,1.7483,1.7629,1.7712,1.7764,1.7777,1.7796,1.7769,1.7727,1.7751,1.7654,1.7773,1.7773,1.7773,1.7773,1.7773,1.6072,1.6149,1.6284,1.6412,1.6509,1.6615,1.6701,1.6799,1.6914,1.7067,1.7124,1.7264,1.7395,1.7596,1.768,1.7791,1.7797,1.7824,1.7831,1.7836,1.7832,1.771,1.7818,1.7818,1.7818,1.7818,1.7818,0,1.6139,1.623,1.6347,1.6505,1.6606,1.6647,1.6776,1.6857,1.6979,1.7097,1.721,1.7367,1.75,1.7625,1.7764,1.7829,1.7856,1.7861,1.7858,1.7876,1.7819,1.7789,1.7837,1.7837,1.7837,1.7837,1.7837,1.7837,1.6186,1.632,1.6386,1.657,1.6661,1.6798,1.6869,1.6967,1.7062,1.7234,1.7344,1.7425,1.7547,1.7696,1.782,1.7853,1.7901,1.79,1.7939,1.7883,1.788,1.7877,1.7849,1.7909,1.7909,1.7988,1.7988,1.7989]},{"header":{"parameterUnit":"m.s-1","parameterCategory":1,"la1":30.2991,"la2":30.254,"lo1":-89.0895,"lo2":-89.0444,"dy":0.0017,"dx":0.0017,"nx":28,"ny":28,"refTime":"2025-09-12T21:00:00:Z","depth":0,"parameterNumber":3,"parameterNumberName":"V-component_of_WINDS"},"data":[0,0,0,0,0,0,0,0,0,0,0,0,0,0,0,0,0,0,0,0,0,0,0,0,0,0,0,0,0,0,0,0,0,0,0,0,0,0,0,0,0,0,0,0,0,0,0,0,0,0,0,0,0,0,0,0,0,0,2.5939,2.5936,0,2.5709,2.5707,2.5704,2.5554,2.5553,2.5552,2.5551,2.5303,2.5297,2.5292,0,0,0,0,0,0,0,0,0,0,0,0,0,2.6232,2.6228,2.5939,2.5936,2.5933,2.571,2.5707,2.5703,2.5554,2.5553,2.5552,2.5551,2.5305,2.5298,2.5291,0,0,0,0,0,0,0,0,0,0,0,0,0,2.6064,2.6226,2.594,2.5832,2.582,2.571,2.5707,2.5703,2.5554,2.5553,2.5551,2.555,2.5307,2.5299,2.529,2.5265,0,0,2.5264,2.526,0,0,0,0,0,0,0,0,2.6074,2.6053,2.5851,2.5839,2.5826,2.5659,2.5719,2.5555,2.5555,2.5655,2.5551,2.5549,2.5422,2.5403,2.5363,2.5253,2.5243,2.5263,2.5258,2.5254,2.5252,0,0,0,0,0,0,0,2.6085,2.6062,2.5848,2.5848,2.5833,2.579,2.5765,2.5687,2.5548,2.5646,2.5635,2.561,2.5414,2.5372,2.5356,2.5239,2.5263,2.5256,2.525,2.5247,2.5089,2.509,0,0,0,0,0,0,2.6116,2.6073,2.5855,2.5841,2.5949,2.5786,2.5758,2.5714,2.5549,2.5523,2.5612,2.5604,2.5387,2.5366,2.5347,2.5302,2.5254,2.5246,2.5241,2.5088,2.509,2.5091,0,0,0,0,0,0,2.6123,2.6098,2.5864,2.5954,2.5921,2.5783,2.5735,2.571,2.5667,2.5523,2.5496,2.5595,2.5385,2.5359,2.5286,2.5292,2.5242,2.5234,2.5087,2.5089,2.509,2.5216,0,0,0,0,0,0,2.6132,2.6102,2.6095,2.5955,2.5917,2.5813,2.5735,2.5707,2.5655,2.5642,2.55,2.5475,2.5382,2.5299,2.5277,2.5279,2.5228,2.5086,2.5088,2.509,2.5211,2.5222,2.5231,0,0,0,0,0,2.6143,2.6138,2.6095,2.607,2.5906,2.5814,2.5791,2.5688,2.5656,2.5645,2.5551,2.5479,2.5295,2.5293,2.5267,2.5266,2.5085,2.5087,2.509,2.5206,2.522,2.5231,0,0,0,0,0,0,2.6278,2.6118,2.6069,2.6019,2.5932,2.5789,2.5772,2.5706,2.5623,2.5615,2.5486,2.5455,2.5393,2.5322,2.5323,2.523,2.5181,2.5178,2.5279,2.529,2.5301,2.5318,2.522,0,0,0,0,0,2.6303,2.6246,2.6107,2.6076,2.6035,2.5912,2.5867,2.5796,2.5698,2.5659,2.556,2.5464,2.5383,2.5333,2.5251,2.52,2.5163,2.5186,2.5196,2.5205,2.5203,2.5165,2.5172,2.5098,2.5098,2.5098,0,0,2.6352,2.6257,2.6229,2.6101,2.6025,2.5963,2.5881,2.5821,2.5772,2.5648,2.5573,2.5497,2.538,2.5317,2.5284,2.5256,2.5215,2.5208,2.5216,2.5209,2.5168,2.5175,2.5181,2.5099,2.5099,2.5099,0,0,2.641,2.6335,2.6299,2.6225,2.6111,2.6028,2.602,2.5886,2.5832,2.5756,2.566,2.5597,2.5463,2.5382,2.5324,2.5347,2.5276,2.5324,2.5376,2.5341,2.5346,2.5351,2.5355,2.5358,2.5323,2.5323,2.5323,0,2.6484,2.6393,2.6288,2.6233,2.6176,2.6065,2.6024,2.5955,2.5819,2.578,2.5751,2.5578,2.5492,2.5405,2.5411,2.5369,2.535,2.5339,2.5355,2.5358,2.5361,2.5363,2.5365,2.533,2.5329,2.5328,2.5328,0,2.6487,2.6425,2.6409,2.6284,2.6226,2.6178,2.606,2.6013,2.5945,2.5864,2.5783,2.5676,2.5569,2.5543,2.5476,2.5445,2.543,2.5381,2.5328,2.5376,2.5375,2.5376,2.5339,2.5336,2.5335,2.5333,0,0,2.6625,2.6442,2.6437,2.6377,2.6242,2.6189,2.6133,2.6032,2.5992,2.59,2.5846,2.5734,2.5685,2.5619,2.554,2.5509,2.5529,2.5461,2.5456,2.5474,2.5482,2.552,2.5523,2.5481,2.5481,2.5481,2.5491,0,2.666,2.656,2.6462,2.6394,2.6331,2.6222,2.6172,2.6081,2.6002,2.5933,2.5843,2.5765,2.5709,2.5667,2.5632,2.5535,2.5528,2.5532,2.5424,2.5421,2.5455,2.5523,2.5563,2.5578,2.549,2.549,2.549,0,2.6689,2.6606,2.6533,2.64,2.637,2.6328,2.6225,2.6162,2.6053,2.5997,2.5923,2.584,2.5768,2.5725,2.5622,2.5627,2.5576,2.5521,2.5518,2.5502,2.5458,2.5506,2.5581,2.5582,2.549,2.549,2.549,0,2.6792,2.6661,2.66,2.6552,2.6397,2.6369,2.6302,2.6192,2.6136,2.6044,2.6005,2.5904,2.5848,2.5769,2.5659,2.5638,2.5565,2.5514,2.5511,2.5514,2.5499,2.5502,2.5565,2.5472,2.5472,2.5472,2.5472,0,2.684,2.6799,2.6644,2.6606,2.6554,2.6439,2.6389,2.6311,2.6214,2.6154,2.6052,2.5996,2.5855,2.5781,2.5693,2.5618,2.5594,2.5542,2.5519,2.555,2.5557,2.5514,2.5509,2.5472,2.5472,2.5472,2.5472,0,2.6947,2.6842,2.6767,2.6627,2.659,2.6558,2.6434,2.6389,2.6304,2.6229,2.6204,2.6069,2.5976,2.5858,2.5727,2.5668,2.56,2.5566,2.5639,2.5625,2.5628,2.5628,2.5663,2.566,2.5574,2.5575,2.5576,0,2.6984,2.695,2.6806,2.6761,2.6698,2.6626,2.6569,2.6452,2.6395,2.6266,2.6235,2.6136,2.605,2.5905,2.579,2.5688,2.5648,2.5668,2.5632,2.5663,2.5644,2.5647,2.564,2.5677,2.5678,2.5679,2.568,0,2.7059,2.7008,2.6932,2.6837,2.6772,2.669,2.6603,2.6571,2.6434,2.6374,2.628,2.6213,2.608,2.5979,2.5861,2.5785,2.5707,2.5693,2.5686,2.5716,2.5758,2.5732,2.5661,2.5692,2.5691,2.569,2.5689,2.5689,2.7129,2.7092,2.6985,2.6901,2.6824,2.6745,2.6695,2.6604,2.6526,2.6411,2.6344,2.6251,2.6136,2.5971,2.5897,2.5818,2.5789,2.5781,2.5778,2.5777,2.5785,2.5774,2.5796,2.5795,2.5795,2.5794,2.5794,0,2.7195,2.7121,2.7046,2.6929,2.6862,2.68,2.6699,2.6646,2.6567,2.6469,2.6387,2.6275,2.6176,2.6054,2.5945,2.5905,2.5866,2.588,2.588,2.5862,2.5819,2.5834,2.5913,2.5913,2.5913,2.5913,2.5913,2.5913,2.7223,2.7156,2.7092,2.6983,2.6906,2.6818,2.6765,2.6688,2.6609,2.6491,2.6411,2.6333,2.6223,2.6105,2.6009,2.5974,2.5937,2.5961,2.5916,2.5877,2.5866,2.5856,2.587,2.5955,2.5955,2.5966,2.5966,2.5966]}]]